Location: Zagreb
(45.8150°N, 15.9819°E)
Time: 10:24:38
(UTC+02:00)

ISS - Visible Passes

Search period start: 08 May 2026 00:00
Search period end: 18 May 2026 00:00
Orbit: 414 x 424 km, 51.6° (Epoch: 8 May)

Date Brightness Start Highest point End Pass type
(mag) Time Alt. Az. Time Alt. Az. Time Alt. Az.
8 May -2.6 02:34:31 33° NNW 02:35:28 43° NNE 02:38:42 10° E visible
8 May -3.4 04:09:05 10° WNW 04:12:17 42° SW 04:15:30 10° SE visible
8 May -2.2 20:54:33 10° S 20:56:51 18° SE 20:59:09 10° E visible
8 May -3.8 22:29:57 10° WSW 22:33:18 79° NNW 22:35:04 25° ENE visible
9 May -1.0 00:07:24 10° WNW 00:08:14 15° WNW 00:08:14 15° WNW visible
9 May -0.7 01:50:53 10° E 01:50:53 10° E 01:50:56 10° E visible
9 May -3.9 03:24:03 49° W 03:24:47 67° SSW 03:28:07 10° SE visible
9 May -3.9 21:42:24 10° SW 21:45:43 69° SSE 21:49:03 10° ENE visible
9 May -2.1 23:19:36 10° W 23:22:43 35° NNW 23:24:24 21° NE visible
10 May -0.8 00:57:02 10° WNW 00:57:25 12° NW 00:57:25 12° NW visible
10 May -1.4 04:15:46 11° S 04:15:46 11° S 04:15:57 10° S visible
10 May -3.4 20:55:01 10° SW 20:58:11 43° SE 21:01:23 10° ENE visible
10 May -2.5 22:31:48 10° W 22:35:01 42° NNW 22:38:14 10° NE visible
11 May -1.7 00:09:21 10° WNW 00:12:10 29° N 00:12:10 29° N visible
11 May -3.1 21:44:03 10° WSW 21:47:20 56° NNW 21:50:39 10° ENE visible
11 May -1.8 23:21:36 10° WNW 23:24:35 29° N 23:26:26 17° NE visible
12 May -1.0 00:58:40 10° NW 00:59:23 15° NW 00:59:23 15° NW visible
12 May -3.6 20:56:21 10° WSW 20:59:42 80° NNW 21:03:02 10° ENE visible
12 May -1.9 22:33:48 10° WNW 22:36:49 31° N 22:39:51 10° ENE visible
13 May -1.9 00:11:03 10° NW 00:13:28 31° NNW 00:13:28 31° NNW visible
13 May -2.1 21:45:57 10° W 21:49:04 35° NNW 21:52:11 10° NE visible
13 May -2.0 23:23:23 10° WNW 23:26:25 31° N 23:27:28 25° NE visible
14 May -0.8 01:00:11 10° WNW 01:00:25 12° WNW 01:00:25 12° WNW visible
14 May -2.4 20:58:07 10° W 21:01:20 42° NNW 21:04:32 10° NE visible
14 May -1.8 22:35:40 10° WNW 22:38:39 29° N 22:41:27 11° ENE visible
15 May -1.9 00:12:34 10° WNW 00:14:22 28° NW 00:14:22 28° NW visible
15 May -1.8 21:47:52 10° WNW 21:50:51 29° N 21:53:50 10° ENE visible
15 May -2.7 23:24:57 10° NW 23:28:10 43° NNE 23:28:18 42° NNE visible
16 May -1.9 21:00:01 10° WNW 21:03:03 31° N 21:06:05 10° ENE visible
16 May -2.3 22:37:17 10° NW 22:40:24 35° NNE 22:42:14 19° ENE visible
17 May -1.4 00:14:03 10° WNW 00:15:10 19° WNW 00:15:10 19° WNW visible
17 May -2.0 21:49:34 10° WNW 21:52:36 31° N 21:55:38 10° ENE visible
17 May -3.2 23:26:23 10° WNW 23:29:06 55° NW 23:29:06 55° NW visible
